Home   Weather   Szczecin   Past weeks
Flag for Poland

Past Weather in Szczecin, Poland — Yesterday and Last 2 Weeks

Now
41 °F

Broken clouds.


Feels Like: 34 °F
Forecast: 36 / 30 °F
Wind: 12 mph from Southwest

Location: Szczecin Airport

Current Time: Jan 17, 2019 at 4:13:51 pm

Latest Report: Jan 17, 2019 at 3:30 pm


Visibility: N/A

Pressure: 29.42 "Hg

Humidity: 70%

Dew Point: 32 °F

Location of SzczecinLocation

Past Weather in Szczecin — Graph

°F

Szczecin Temperature Yesterday

Maximum temperature yesterday: 45 °F (at 11:30 am)
Minimum temperature yesterday: 41 °F (at 11:00 pm)
Average temperature yesterday: 43 °F

High & Low Weather Summary for the Past Weeks

 TemperatureHumidityPressure
High45 °F (Jan 13, 5:00 pm)100% (Jan 4, 9:00 am)30.48 "Hg (Jan 4, 9:00 am)
Low25 °F (Jan 3, 7:00 pm)44% (Jan 2, 5:30 pm)28.97 "Hg (Jan 13, 9:30 pm)
Average37 °F87%29.85 "Hg
* Reported Jan 2 2:00 pm — Jan 17 2:30 pm, Szczecin. Weather by CustomWeather, © 2019

Note: Actual official high and low records may vary slightly from our data, if they occured in-between our weather recording intervals... More about our weather records

Advertising

Szczecin Weather History for the Previous 24 Hours

Scroll right to see more
 ConditionsComfort  
Time TempWeatherWind HumidityBarometerVisibility
2:30 pm
Thu, Jan 17
41 °FBroken clouds.9 mph76%29.42 "HgN/A
2:00 pm41 °FBroken clouds.12 mph70%29.42 "HgN/A
1:30 pm41 °FBroken clouds.10 mph76%29.42 "HgN/A
1:00 pm41 °FBroken clouds.10 mph76%29.42 "HgN/A
12:30 pm41 °FOvercast.12 mph76%29.45 "HgN/A
12:00 pm41 °FPartly sunny.12 mph81%29.45 "HgN/A
11:30 am41 °FBroken clouds.12 mph81%29.45 "HgN/A
11:00 am41 °FBroken clouds.10 mph81%29.45 "HgN/A
10:30 am41 °FMore clouds than sun.9 mph81%29.45 "HgN/A
10:00 am39 °FMostly cloudy.9 mph87%29.42 "HgN/A
9:30 am39 °FMore clouds than sun.9 mph87%29.42 "HgN/A
9:00 am39 °FMostly cloudy.9 mph87%29.42 "HgN/A
8:30 am39 °FPartly sunny.10 mph87%29.39 "HgN/A
8:00 am37 °FLow clouds.13 mph93%29.39 "HgN/A
7:30 am37 °FLight rain. Mostly cloudy.10 mph93%29.39 "HgN/A
7:00 am37 °FLight rain. Low clouds.12 mph93%29.39 "Hg5 mi
6:30 am37 °FLight rain. Mostly cloudy.10 mph93%29.39 "Hg5 mi
6:00 am37 °FLight rain. Overcast.9 mph87%29.39 "Hg4 mi
5:30 am37 °FLight rain. Mostly cloudy.12 mph87%29.39 "HgN/A
5:00 am37 °FLight rain. Passing clouds.10 mph87%29.39 "HgN/A
4:30 am37 °FLight rain. Passing clouds.12 mph87%29.39 "Hg6 mi
4:00 am39 °FLight rain. Mostly cloudy.13 mph81%29.39 "HgN/A
3:30 am39 °FLight rain. Mostly cloudy.13 mph81%29.39 "HgN/A
3:00 am39 °FPassing clouds.10 mph81%29.42 "HgN/A
2:30 am39 °FPassing clouds.10 mph75%29.42 "HgN/A
2:00 am39 °FMostly cloudy.10 mph75%29.45 "HgN/A
1:30 am39 °FOvercast.12 mph81%29.45 "HgN/A
1:00 am41 °FOvercast.10 mph76%29.45 "HgN/A
12:30 am41 °FPartly cloudy.13 mph76%29.47 "HgN/A
12:00 am41 °FPartly cloudy.13 mph81%29.47 "HgN/A
11:30 pm
Wed, Jan 16
41 °FOvercast.13 mph81%29.47 "HgN/A
11:00 pm41 °FMostly cloudy.14 mph81%29.50 "HgN/A
10:30 pm43 °FLight rain. Overcast.13 mph81%29.50 "HgN/A
10:00 pm43 °FLight rain. Mostly cloudy.14 mph81%29.53 "HgN/A
9:30 pm43 °FOvercast.15 mph81%29.53 "HgN/A
9:00 pm43 °FOvercast.13 mph87%29.53 "HgN/A
8:30 pm43 °FMostly cloudy.14 mph87%29.53 "HgN/A
8:00 pm43 °FMostly cloudy.13 mph87%29.56 "HgN/A
7:30 pm43 °FMostly cloudy.13 mph87%29.56 "HgN/A
7:00 pm43 °FPartly cloudy.10 mph87%29.56 "HgN/A
6:30 pm43 °FMostly cloudy.10 mph87%29.59 "HgN/A
6:00 pm43 °FMostly cloudy.10 mph87%29.59 "HgN/A
5:30 pm43 °FPassing clouds.12 mph87%29.59 "HgN/A
5:00 pm43 °FPassing clouds.10 mph87%29.59 "HgN/A
4:30 pm43 °FPassing clouds.10 mph87%29.59 "HgN/A
4:00 pm43 °FBroken clouds.9 mph87%29.62 "HgN/A
Weather by CustomWeather, © 2019

See weather overview